Location: Antioch Baptist Church
(32.6696°N, 85.7327°W)
Time: 11:48:42
(UTC+00:00)

Cosmos 2084 - Pass Details

Date: 14 July 2020
Orbit: 571 x 612 km, 62.8° (Epoch: 08 August)

Event Time Altitude Azimuth Distance (km) Brightness Sun altitude
Rises 01:57:00 0° 331° (NNW) 2,874 8.3 -12.5°
Reaches altitude 10° 01:59:17 10° 334° (NNW) 1,964 7.2 -12.9°
Maximum altitude 02:03:44 71° 58° (ENE) 643 3.5 -13.6°
Enters shadow 02:06:28 22° 139° (SE) 1,312 4.6 -14.1°
